Time,TemperatureF,DewpointF,PressureIn,WindDirection,WindDirectionDegrees,WindSpeedMPH,WindSpeedGustMPH,Humidity,HourlyPrecipIn,Conditions,Clouds,dailyrainin,SoftwareType,DateUTC
2013-08-09 00:42:00,71.0,71.0,29.79,SSW,198,4.0,4.0,100,0.00,,,0.09,,2013-08-09 05:42:00,
2013-08-09 01:21:00,71.0,71.0,29.80,South,188,1.0,0.0,100,0.00,,,0.09,,2013-08-09 06:21:00,
2013-08-09 01:43:00,70.0,70.0,29.79,SSE,148,2.0,2.0,100,0.00,,,0.09,,2013-08-09 06:43:00,
2013-08-09 01:52:00,70.0,70.0,29.79,South,173,3.0,3.0,100,0.00,,,0.09,,2013-08-09 06:52:00,
2013-08-09 02:01:00,70.0,70.0,29.79,SSW,198,2.0,2.0,100,0.00,,,0.09,,2013-08-09 07:01:00,
2013-08-09 02:12:00,70.0,70.0,29.79,SSE,159,3.0,3.0,100,0.00,,,0.09,,2013-08-09 07:12:00,
2013-08-09 02:22:00,70.0,70.0,29.79,SSE,155,2.0,2.0,100,0.00,,,0.09,,2013-08-09 07:22:00,
2013-08-09 02:33:00,70.0,70.0,29.80,SE,146,0.0,0.0,100,0.00,,,0.09,,2013-08-09 07:33:00,
2013-08-09 02:43:00,69.0,69.0,29.80,NW,321,0.0,0.0,100,0.00,,,0.09,,2013-08-09 07:43:00,
2013-08-09 02:52:00,70.0,70.0,29.80,NW,321,0.0,0.0,100,0.00,,,0.09,,2013-08-09 07:52:00,
2013-08-09 03:02:00,70.0,70.0,29.80,NW,321,0.0,0.0,100,0.00,,,0.09,,2013-08-09 08:02:00,
2013-08-09 03:12:00,69.0,69.0,29.80,NW,321,0.0,0.0,100,0.00,,,0.09,,2013-08-09 08:12:00,
2013-08-09 03:22:00,69.0,69.0,29.80,NW,321,0.0,0.0,100,0.00,,,0.09,,2013-08-09 08:22:00,
2013-08-09 03:32:00,69.0,69.0,29.80,NW,321,0.0,0.0,100,0.00,,,0.09,,2013-08-09 08:32:00,
2013-08-09 03:43:00,69.0,69.0,-100.00,NW,319,2.0,2.0,100,0.00,,,0.09,,2013-08-09 08:43:00,
2013-08-09 03:53:00,69.0,69.0,29.81,NW,326,0.0,0.0,100,0.00,,,0.09,,2013-08-09 08:53:00,
2013-08-09 04:43:00,69.0,69.0,29.81,NW,326,0.0,0.0,100,0.00,,,0.09,,2013-08-09 09:43:00,
2013-08-09 04:52:00,69.0,69.0,29.81,SE,127,1.0,1.0,100,0.00,,,0.09,,2013-08-09 09:52:00,
2013-08-09 05:01:00,69.0,69.0,29.82,SE,129,1.0,0.0,100,0.00,,,0.09,,2013-08-09 10:01:00,
2013-08-09 05:12:00,69.0,69.0,29.81,SE,135,1.0,1.0,100,0.00,,,0.09,,2013-08-09 10:12:00,
2013-08-09 05:22:00,69.0,69.0,29.81,SE,134,0.0,0.0,100,0.00,,,0.09,,2013-08-09 10:22:00,
2013-08-09 05:32:00,69.0,69.0,29.81,SE,134,0.0,0.0,100,0.00,,,0.09,,2013-08-09 10:32:00,
2013-08-09 06:01:00,69.0,69.0,29.81,SE,134,0.0,0.0,100,0.00,,,0.09,,2013-08-09 11:01:00,
2013-08-09 06:11:00,69.0,69.0,29.81,South,181,2.0,3.0,100,0.00,,,0.09,,2013-08-09 11:11:00,
2013-08-09 08:12:00,70.0,70.0,29.86,North,1,6.0,6.0,100,0.00,,,0.09,,2013-08-09 13:12:00,
2013-08-09 08:23:00,70.0,70.0,29.87,NNE,27,4.0,6.0,100,0.00,,,0.09,,2013-08-09 13:23:00,
2013-08-09 08:32:00,71.0,71.0,29.87,North,0,3.0,3.0,100,0.00,,,0.09,,2013-08-09 13:32:00,
2013-08-09 08:43:00,71.0,71.0,29.88,North,6,3.0,3.0,100,0.00,,,0.09,,2013-08-09 13:43:00,
2013-08-09 08:52:00,71.0,71.0,29.88,North,6,3.0,3.0,100,0.00,,,0.09,,2013-08-09 13:52:00,
2013-08-09 09:02:00,73.0,73.0,29.88,ENE,68,1.0,1.0,100,0.00,,,0.09,,2013-08-09 14:02:00,
2013-08-09 09:11:00,74.0,74.0,29.89,NNE,30,4.0,6.0,100,0.00,,,0.09,,2013-08-09 14:11:00,
2013-08-09 09:22:00,74.0,74.0,29.89,NNE,15,4.0,5.0,100,0.00,,,0.09,,2013-08-09 14:22:00,
2013-08-09 09:33:00,74.0,74.0,29.89,NNE,17,3.0,6.0,100,0.00,,,0.09,,2013-08-09 14:33:00,
2013-08-09 09:43:00,75.0,75.0,29.89,ESE,103,2.0,3.0,100,0.00,,,0.09,,2013-08-09 14:43:00,
2013-08-09 21:32:00,83.0,66.0,29.82,NE,55,4.0,4.0,57,0.00,,,0.09,,2013-08-10 02:32:00,